Regional Weather Roundup
Issued by NWS Newport/Morehead, NC

Current Version | Previous Version | Text Only | Print | Product List | Glossary On
Versions: 1 2 3 4 5 6 7 8 9 10 11 12 13 14 15 16 17 18 19 20 21 22 23 24 25 26 27 28 29 30 31 32 33 34 35 36 37 38 39 40 41 42 43 44 45 46 47 48 49 50
000
ASUS42 KMHX 012010
RWRMHX
WEATHER ROUNDUP FOR EASTERN NORTH CAROLINA
NATIONAL WEATHER SERVICE NEWPORT/MOREHEAD CITY NC
300 PM EST SUN FEB 01 2015

NOTE: "FAIR" INDICATES FEW OR NO CLOUDS BELOW 12,000 FEET
WITH NO SIGNIFICANT WEATHER AND/OR OBSTRUCTIONS TO VISIBILITY

NCZ015>017-031-032-045>047-102-103-012100-
NORTH COAST

CITY           SKY/WX    TMP DP  RH WIND       PRES   REMARKS
EDENTON        PTSUNNY   49  28  43 E3        30.18S
ELIZABETH CITY CLOUDY    49  23  36 S6        30.18F
KITTY HAWK     MOCLDY    47  24  39 S5        30.18F
MANTEO         PTSUNNY   48  30  49 SE8       30.19F

$$

NCZ045>047-081-094-103-104-012100-
CENTRAL COAST

CITY           SKY/WX    TMP DP  RH WIND       PRES   REMARKS
FRISCO         MOSUNNY   53  34  48 VRB3      30.21F
SWANQUARTER      N/A     50 N/A N/A S7        30.15S

$$

NCZ095-097-098-100-101-012100-
SOUTHERN COAST

CITY           SKY/WX    TMP DP  RH WIND       PRES   REMARKS
BEAUFORT       CLOUDY    53  37  54 SW7       30.20F
CEDAR ISLAND     N/A     54 N/A N/A S3G15     30.24S
JACKSONVILLE   CLOUDY    58  33  39 S16G23    30.17F
PINEY ISLAND     N/A    N/A N/A N/A MISG      30.19F
WILMINGTON     MOSUNNY   60  36  40 S14       30.17F


$$

NCZ011>013-027>030-043-044-078>080-089-090>093-098-012100-
COASTAL PLAIN

CITY           SKY/WX    TMP DP  RH WIND       PRES   REMARKS
AHOSKIE        CLOUDY    52  24  32 S3        30.15F
CLINTON        MOSUNNY   59  31  34 S7        30.14F
ELIZABETHTOWN  MOSUNNY   61  36  39 SW13      30.14F
GOLDSBORO      CLOUDY    55  25  31 S6        30.13F
GREENVILLE     CLOUDY    54  21  28 SW14      30.18F
HAVELOCK       CLOUDY    55  23  28 SW5       30.20F
KENANSVILLE    CLOUDY    56  24  28 SE3       30.16F
KINSTON        CLOUDY    55  21  26 S12       30.17F
NEW BERN       CLOUDY    57  21  24 SW10      30.19F
RICHLANDS      CLOUDY    57  30  35 S10       30.17F
ROCKY MOUNT    MOSUNNY   54  20  26 S12       30.15F
WASHINGTON     CLOUDY    53  21  28 S8        30.16F
WHITEVILLE     MOSUNNY   60  35  38 S13       30.15S

$$

AMZ130-135-150-152-154-156-158-170-250-252-270-ANZ085-086-088-633-658-670-012100-
MARINE OBSERVATIONS

STATION/POSITION TIME  TEMP    WIND        PRES    WAVE   SWELL
                       AIR SEA DIR/SP/G            HT/PER HT/PER
                 (UTC) (F)     (DEG/KT/KT) (MB)    (FT/S) (FT/S)
CHESAPEAKE LIGHT 1900   41     130/ 12/ 13 1022.9
64 E VA BEACH    2000   45 48  180/  8/ 10 1021.9    4/ 6   3/ 6
DUCK             2000   42 40  130/  6/  6 1021.5
2 E DUCK         2000      41                N/A     2/11   2/11
10 NE DUCK       2000      43                N/A     3/12   2/12
OREGON INLET     2000   46 36  170/  6/  7 1022.7
13E OREGON INLT  2000      48                N/A     3/ 6   2/11
HATTERAS CG      2000   51 47  270/  3/  7 1023.1
DIAMOND BUOY     2000   55 71  270/ 12/ 14 1023.0    4/10   5/10
17 S OCRACOKE    NOT AVBL
CAPE LOOKOUT     1900   50     290/  5/  7 1023.6
BEAUFORT LAB     2000   52 45  230/  3/  4 1021.6
27 SE WRIGHTSVLE NOT AVBL
5 SE WRIGHTSVLE  1900   53 52  180/  8/  8 1022.8
225 S CAPE HAT   1935   61 71  200/  8/ 14 1025.6    6/11   7/11
41 SE CHARLESTON 2000   65 71  170/ 16/ 19 1020.6    3/11   3/11

$$



USA.gov is the U.S. government's official web portal to all federal, state and local government web resources and services.